When you browse on this site, cookies collect data to enhance your experience and personalize the content and advertising you see.
Visit our Privacy Policy to learn more. By continuing to use the site, you agree to this use of cookies and data.
EN

Hourly Weather Golabki

Today, 21 September, Monday

Time Temperature Precipitation Wind Pressure Humidity
00:00 +12°C° 0 mm 2 mps 756 mmHg 64%
01:00 +10°C° 0 mm 2 mps 756 mmHg 63%
02:00 +10°C° 0 mm 2 mps 756 mmHg 65%
03:00 +9°C° 0 mm 2 mps 756 mmHg 67%
04:00 +9°C° 0 mm 2 mps 756 mmHg 70%
05:00 +10°C° 0 mm 2 mps 756 mmHg 69%
06:00 +10°C° 0 mm 2 mps 756 mmHg 69%
07:00 +12°C° 0 mm 2 mps 756 mmHg 66%
08:00 +14°C° 0 mm 2 mps 756 mmHg 61%
09:00 +16°C° 0 mm 2 mps 756 mmHg 56%
10:00 +19°C° 0 mm 2 mps 756 mmHg 50%
11:00 +20°C° 0 mm 2 mps 756 mmHg 47%
12:00 +21°C° 0 mm 2 mps 756 mmHg 44%
13:00 +23°C° 0 mm 2 mps 756 mmHg 41%
14:00 +23°C° 0 mm 2 mps 755 mmHg 42%
15:00 +23°C° 0 mm 2 mps 755 mmHg 43%
16:00 +23°C° 0 mm 2 mps 754 mmHg 44%
17:00 +21°C° 0 mm 1 mps 754 mmHg 49%
18:00 +20°C° 0 mm 1 mps 754 mmHg 54%
19:00 +18°C° 0 mm 1 mps 754 mmHg 59%
20:00 +16°C° 0 mm 1 mps 754 mmHg 60%
21:00 +16°C° 0 mm 1 mps 754 mmHg 62%
22:00 +15°C° 0 mm 2 mps 754 mmHg 63%
23:00 +15°C° 0 mm 2 mps 754 mmHg 64%

Tomorrow, 22 September, Tuesday

Time Temperature Precipitation Wind Pressure Humidity
00:00 +15°C° 0 mm 2 mps 754 mmHg 64%
01:00 +14°C° 0 mm 2 mps 753 mmHg 64%
02:00 +14°C° 0 mm 2 mps 753 mmHg 65%
03:00 +14°C° 0 mm 2 mps 753 mmHg 65%
04:00 +14°C° 0 mm 2 mps 753 mmHg 66%
05:00 +14°C° 0 mm 2 mps 753 mmHg 66%
06:00 +15°C° 0 mm 2 mps 753 mmHg 65%
07:00 +16°C° 0 mm 2 mps 753 mmHg 65%
08:00 +18°C° 0 mm 3 mps 753 mmHg 59%
09:00 +20°C° 0 mm 3 mps 752 mmHg 52%
10:00 +23°C° 0 mm 4 mps 752 mmHg 46%
11:00 +25°C° 0 mm 4 mps 752 mmHg 42%
12:00 +26°C° 0 mm 4 mps 752 mmHg 38%
13:00 +28°C° 0 mm 5 mps 751 mmHg 34%
14:00 +27°C° 0 mm 4 mps 751 mmHg 36%
15:00 +27°C° 0 mm 4 mps 750 mmHg 38%
16:00 +27°C° 0 mm 3 mps 750 mmHg 40%
17:00 +25°C° 0 mm 3 mps 750 mmHg 45%
18:00 +22°C° 0 mm 3 mps 749 mmHg 50%
19:00 +20°C° 0 mm 3 mps 749 mmHg 54%
20:00 +19°C° 0 mm 3 mps 749 mmHg 56%
21:00 +19°C° 0 mm 3 mps 749 mmHg 58%
22:00 +18°C° 0 mm 3 mps 749 mmHg 60%
23:00 +18°C° 0 mm 3 mps 749 mmHg 61%

Day after tomorrow, 23 September, Wednesday

Time Temperature Precipitation Wind Pressure Humidity
00:00 +17°C° 0 mm 3 mps 748 mmHg 62%
01:00 +17°C° 0 mm 3 mps 748 mmHg 63%
02:00 +17°C° 0 mm 3 mps 748 mmHg 63%
03:00 +16°C° 0 mm 3 mps 748 mmHg 63%
04:00 +16°C° 0 mm 2 mps 748 mmHg 64%
05:00 +16°C° 0 mm 3 mps 747 mmHg 62%
06:00 +17°C° 0 mm 3 mps 747 mmHg 61%
07:00 +17°C° 0 mm 3 mps 747 mmHg 60%
08:00 +20°C° 0 mm 3 mps 747 mmHg 54%
09:00 +22°C° 0 mm 3 mps 747 mmHg 48%
10:00 +25°C° 0 mm 4 mps 747 mmHg 43%
11:00 +26°C° 0 mm 4 mps 746 mmHg 41%
12:00 +27°C° 0 mm 4 mps 746 mmHg 39%
13:00 +28°C° 0 mm 5 mps 746 mmHg 38%
14:00 +28°C° 0 mm 4 mps 746 mmHg 41%
15:00 +28°C° 0 mm 3 mps 746 mmHg 44%
16:00 +27°C° 0 mm 3 mps 745 mmHg 47%
17:00 +26°C° 0 mm 3 mps 745 mmHg 52%
18:00 +24°C° 0 mm 2 mps 745 mmHg 57%
19:00 +21°C° 0 mm 2 mps 745 mmHg 63%
20:00 +20°C° 0 mm 2 mps 745 mmHg 65%
21:00 +20°C° 0 mm 2 mps 745 mmHg 68%
22:00 +19°C° 0 mm 2 mps 745 mmHg 70%
23:00 +19°C° 0 mm 2 mps 746 mmHg 72%

24 September, Thursday

Time Temperature Precipitation Wind Pressure Humidity
00:00 +18°C° 0 mm 2 mps 746 mmHg 75%
01:00 +18°C° 0 mm 2 mps 746 mmHg 77%
02:00 +18°C° 0.2 mm 2 mps 746 mmHg 80%
03:00 +17°C° 0.2 mm 2 mps 746 mmHg 82%
04:00 +17°C° 0.2 mm 2 mps 746 mmHg 85%
05:00 +17°C° 0.1 mm 2 mps 746 mmHg 84%
06:00 +17°C° 0.1 mm 2 mps 746 mmHg 84%
07:00 +18°C° 0.1 mm 2 mps 746 mmHg 84%
08:00 +19°C° 0.1 mm 2 mps 746 mmHg 75%
09:00 +21°C° 0.1 mm 2 mps 747 mmHg 66%
10:00 +24°C° 0.1 mm 3 mps 747 mmHg 57%
11:00 +25°C° 0 mm 3 mps 747 mmHg 52%
12:00 +26°C° 0 mm 3 mps 747 mmHg 47%
13:00 +26°C° 0 mm 4 mps 747 mmHg 42%
14:00 +26°C° 0 mm 3 mps 747 mmHg 44%
15:00 +26°C° 0 mm 3 mps 747 mmHg 47%
16:00 +25°C° 0 mm 2 mps 746 mmHg 49%
17:00 +24°C° 0 mm 2 mps 747 mmHg 54%
18:00 +21°C° 0 mm 2 mps 747 mmHg 58%
19:00 +21°C° 0 mm 1 mps 747 mmHg 63%
20:00 +19°C° 0 mm 2 mps 747 mmHg 65%
21:00 +19°C° 0 mm 2 mps 747 mmHg 67%
22:00 +18°C° 0 mm 2 mps 747 mmHg 68%
23:00 +18°C° 0 mm 2 mps 747 mmHg 72%

25 September, Friday

Time Temperature Precipitation Wind Pressure Humidity
00:00 +18°C° 0 mm 2 mps 747 mmHg 75%
01:00 +17°C° 0 mm 3 mps 747 mmHg 79%
02:00 +17°C° 0 mm 3 mps 746 mmHg 80%
03:00 +16°C° 0 mm 3 mps 746 mmHg 82%
04:00 +16°C° 0 mm 3 mps 746 mmHg 83%
05:00 +17°C° 0 mm 3 mps 745 mmHg 81%
06:00 +17°C° 0 mm 4 mps 745 mmHg 79%
07:00 +18°C° 0 mm 4 mps 745 mmHg 77%
08:00 +20°C° 0 mm 5 mps 744 mmHg 71%
09:00 +22°C° 0 mm 5 mps 744 mmHg 64%
10:00 +23°C° 0 mm 6 mps 743 mmHg 57%
11:00 +24°C° 0 mm 6 mps 742 mmHg 55%
12:00 +26°C° 0 mm 7 mps 742 mmHg 53%
13:00 +26°C° 0 mm 7 mps 741 mmHg 51%
14:00 +26°C° 0 mm 6 mps 741 mmHg 53%
15:00 +25°C° 0 mm 5 mps 740 mmHg 55%
16:00 +23°C° 0 mm 4 mps 739 mmHg 56%
17:00 +22°C° 0.2 mm 5 mps 739 mmHg 62%
18:00 +21°C° 0.2 mm 6 mps 739 mmHg 68%
19:00 +20°C° 0.2 mm 7 mps 739 mmHg 73%
20:00 +20°C° 0.1 mm 7 mps 739 mmHg 74%
21:00 +20°C° 0.1 mm 7 mps 739 mmHg 74%
22:00 +20°C° 0.1 mm 7 mps 738 mmHg 75%
23:00 +18°C° 0.1 mm 7 mps 739 mmHg 78%

26 September, Saturday

Time Temperature Precipitation Wind Pressure Humidity
00:00 +17°C° 0.1 mm 8 mps 739 mmHg 81%
01:00 +16°C° 0.1 mm 8 mps 739 mmHg 84%
02:00 +15°C° 0.1 mm 7 mps 740 mmHg 82%
03:00 +14°C° 0.1 mm 7 mps 740 mmHg 80%
04:00 +14°C° 0.1 mm 6 mps 741 mmHg 78%
05:00 +13°C° 0 mm 6 mps 742 mmHg 79%
06:00 +13°C° 0 mm 5 mps 742 mmHg 80%
07:00 +13°C° 0 mm 4 mps 743 mmHg 81%
08:00 +14°C° 0 mm 4 mps 744 mmHg 77%
09:00 +14°C° 0 mm 3 mps 744 mmHg 73%
10:00 +16°C° 0 mm 3 mps 745 mmHg 69%
11:00 +16°C° 0 mm 2 mps 745 mmHg 64%
12:00 +17°C° 0 mm 2 mps 746 mmHg 59%
13:00 +19°C° 0 mm 1 mps 746 mmHg 53%
14:00 +19°C° 0 mm 1 mps 746 mmHg 54%
15:00 +19°C° 0 mm 1 mps 746 mmHg 55%
16:00 +17°C° 0 mm 2 mps 745 mmHg 56%
17:00 +17°C° 0 mm 2 mps 745 mmHg 59%
18:00 +16°C° 0 mm 3 mps 745 mmHg 63%
19:00 +16°C° 0 mm 3 mps 745 mmHg 66%
20:00 +15°C° 0.5 mm 4 mps 745 mmHg 72%
21:00 +14°C° 0.5 mm 5 mps 744 mmHg 78%
22:00 +14°C° 0.5 mm 6 mps 744 mmHg 84%
23:00 +14°C° 1.8 mm 6 mps 743 mmHg 87%
Show more